STARLINK-31916, 59795

Orbit data source: Space-Track

STARLINK-31916, 59795 is a payload satellite owned by SpaceX/Seattle (US) in LEO that was launched on Sat, 18 May 2024 UTC via an FALCON 9 launch vehicle from the Air Force Eastern Test Range (AFETR). Payload-class satellites include a variety of spacecraft equipped with specific instruments for various scientific and technological missions. These include communications satellites like Starlink; space stations such as the ISS; scientific satellites like the Hubble; Earth observation satellites from companies like Planet Labs, Umbra, and HawkEye 360; GPS; miniature CubeSats for education and research; and military/defense satellites.

Loading next visibility...
Identifier
59795, 2024-093P
Orbit
LEO
Last TLE update
17 hours ago
Origin
Manufacturer
SpaceX/Seattle
Mission
Operational spacecraft
Bus & Motor
STARLINK V2M, Unknown motor
Mass
730 kg wet, ~700 kg dry
Launch date (UTC)
2024-05-18 (1 year ago)
Launch vehicle
FALCON 9
Launch site
Air Force Eastern Test Range (AFETR)
Object type
Payload
Rocket body
Debris
Shape & HBR
Unknown
Radar Cross Section
Large (>1 m²)

Expand to show TLE details & history

TLE from 17 hours ago
0 STARLINK-31916
1 59795U 24093P   25181.74446954 -.00000512  00000-0 -90733-5 0  9990
2 59795  43.0026 191.7495 0001160 272.8987  87.1732 15.27573604 64164
Epoch: 2025-06-30T17:52Z
TLE epoch observation values (Epoch: 2025-06-30T17:52:02.168Z)
Latitude
-0°
Longitude
4.69058°
Altitude
482.805 km
Speed
7.626 km/s
True Right ascension
12h 46m 59s
True Declination
0° 00' 00"
Sunlit
Object was in daylight at epoch
Visualization orbit readout
Latitude
-29.42555°
Longitude
-142.25881°
Altitude
490.372 km
Speed
7.621 km/s
Apparent Right ascension
06h 03m 49s
Apparent Declination
-48° 58' 48"
Sunlit
Object is in daylight
Visualization observer readout
Local Sidereal Time
22:11:05
Azimuth
123.284° SE
Elevation
-46.208°
Doppler factor
1
Orbital elements
Apogee altitude
485.809 km
Perigee altitude
484.217 km
Semi-major axis
6,863.15 km
Eccentricity
0.00012
Inclination
43.0026°
RAAN
191.7495°
Arg. of periapsis
272.8987°
True anomaly
Unknown
Mean anomaly
87.1732°
Eccentric anomaly
Unknown
Mean motion
3.81731 °/min
Orbital period
94.31 mins
BSTAR
-0.0000090733
Loading maneuver chart data...
Loading SW <> Apogee altitude chart data...
Loading historical data...
Loading historical data...
Loading historical data...
Loading historical data...
Loading historical data...
Loading historical data...
Loading historical data...

STARLINK-31916 Visibility forecast

Observer location: undefined°, undefined°

Span
Click to sort rows by Start time (UTC) header in descending order
Start Az.
Max El. time (UTC)
Max El. Az.
Max El.
End time (UTC)
End Az.
5 mins2025-07-02 03:00:37.950Z188.296° SSW2025-07-02 03:02:37.950Z151.293° SSE19.514°2025-07-02 03:05:37.950Z96.212° ESE
5 mins2025-07-02 04:39:37.950Z247.579° W2025-07-02 04:41:37.950Z106.901° ESE44.757°2025-07-02 04:44:37.950Z72.552° E
5 mins2025-07-02 06:18:37.950Z290.888° WNW2025-07-02 06:20:37.950Z357.764° N38.095°2025-07-02 06:23:37.950Z72.837° E
5 mins2025-07-02 07:57:37.950Z291.63° WNW2025-07-02 07:59:37.950Z337.279° NNW44.021°2025-07-02 08:02:37.950Z101.913° ESE
5 mins2025-07-02 09:36:37.950Z258.397° W2025-07-02 09:38:37.950Z209.757° SW25.452°2025-07-02 09:41:37.950Z153.022° SSE
|